| time (UTC) | temp C | wind direction | speed KPH | gust KPH | rain 1hr cm | rain 24hr cm | rain mn cm | humidity % | barometer mb |
| 20260503225517 | 26 | 341 | 4.8 | 12.9 | 0.00 | 0.00 | 0.00 | 43 | 1011.0 |
| 20260503224521 | 26 | 324 | 3.2 | 12.9 | 0.00 | 0.00 | 0.00 | 43 | 1011.1 |
| 20260503223538 | 26 | 8 | 6.4 | 20.9 | 0.00 | 0.00 | 0.00 | 43 | 1011.3 |
| 20260503222539 | 26 | 335 | 6.4 | 12.9 | 0.00 | 0.00 | 0.00 | 44 | 1011.4 |
| 20260503221518 | 26 | 299 | 4.8 | 24.1 | 0.00 | 0.00 | 0.00 | 45 | 1011.5 |
| 20260503220518 | 26 | 299 | 6.4 | 16.1 | 0.00 | 0.00 | 0.00 | 45 | 1011.6 |
| 20260503215517 | 26 | 317 | 8.0 | 16.1 | 0.00 | 0.00 | 0.00 | 44 | 1011.6 |
| 20260503214539 | 26 | 333 | 6.4 | 17.7 | 0.00 | 0.00 | 0.00 | 43 | 1011.7 |
| 20260503213539 | 26 | 319 | 4.8 | 11.3 | 0.00 | 0.00 | 0.00 | 43 | 1011.8 |
| 20260503212518 | 26 | 345 | 1.6 | 9.7 | 0.00 | 0.00 | 0.00 | 42 | 1011.9 |
| 20260503211519 | 25 | 311 | 8.0 | 17.7 | 0.00 | 0.00 | 0.00 | 43 | 1012.0 |
| 20260503210518 | 25 | 305 | 3.2 | 11.3 | 0.00 | 0.00 | 0.00 | 42 | 1012.1 |
| 20260503205519 | 25 | 329 | 6.4 | 16.1 | 0.00 | 0.00 | 0.00 | 42 | 1012.2 |
| 20260503204600 | 25 | 300 | 8.0 | 14.5 | 0.00 | 0.00 | 0.00 | 41 | 1012.3 |
| 20260503203516 | 25 | 358 | 4.8 | 12.9 | 0.00 | 0.00 | 0.00 | 42 | 1012.5 |
| 20260503202519 | 25 | 330 | 3.2 | 14.5 | 0.00 | 0.00 | 0.00 | 46 | 1012.5 |
| 20260503201520 | 25 | 334 | 3.2 | 12.9 | 0.00 | 0.00 | 0.00 | 47 | 1012.6 |
| 20260503200519 | 25 | 34 | 1.6 | 9.7 | 0.00 | 0.00 | 0.00 | 47 | 1012.7 |
| 20260503195517 | 25 | 171 | 3.2 | 11.3 | 0.00 | 0.00 | 0.00 | 48 | 1012.9 |
| 20260503194518 | 24 | 83 | 1.6 | 6.4 | 0.00 | 0.00 | 0.00 | 49 | 1013.0 |
| 20260503193519 | 23 | 87 | 1.6 | 12.9 | 0.00 | 0.00 | 0.00 | 49 | 1013.2 |
| 20260503192518 | 24 | 36 | 1.6 | 12.9 | 0.00 | 0.00 | 0.00 | 49 | 1013.3 |
| 20260503191519 | 23 | 67 | 1.6 | 9.7 | 0.00 | 0.00 | 0.00 | 48 | 1013.4 |
| 20260503190518 | 24 | 92 | 1.6 | 12.9 | 0.00 | 0.00 | 0.00 | 49 | 1013.5 |
| 20260503185518 | 23 | 349 | 0.0 | 9.7 | 0.00 | 0.00 | 0.00 | 51 | 1013.6 |
| 20260503184518 | 23 | 137 | 6.4 | 14.5 | 0.00 | 0.00 | 0.00 | 51 | 1013.6 |
| 20260503183518 | 23 | 110 | 4.8 | 16.1 | 0.00 | 0.00 | 0.00 | 53 | 1013.8 |
| 20260503182518 | 22 | 116 | 1.6 | 11.3 | 0.00 | 0.00 | 0.00 | 54 | 1013.8 |
| 20260503181519 | 22 | 107 | 3.2 | 11.3 | 0.00 | 0.00 | 0.00 | 54 | 1013.9 |
| 20260503180540 | 22 | 106 | 3.2 | 14.5 | 0.00 | 0.00 | 0.00 | 56 | 1013.9 |
| 20260503175518 | 22 | 106 | 1.6 | 11.3 | 0.00 | 0.00 | 0.00 | 58 | 1014.0 |
| 20260503174519 | 21 | 20 | 1.6 | 6.4 | 0.00 | 0.00 | 0.00 | 59 | 1014.1 |
| 20260503173518 | 21 | 33 | 4.8 | 14.5 | 0.00 | 0.00 | 0.00 | 60 | 1014.2 |
| 20260503172519 | 21 | 33 | 0.0 | 9.7 | 0.00 | 0.00 | 0.00 | 61 | 1014.2 |
| 20260503171522 | 20 | 22 | 0.0 | 4.8 | 0.00 | 0.00 | 0.00 | 62 | 1014.3 |
| 20260503170518 | 20 | 0.0 | 0.0 | 0.00 | 0.00 | 0.00 | 63 | 1014.3 | |
| 20260503150540 | 15 | 31 | 1.6 | 6.4 | 0.00 | 0.00 | 0.00 | 75 | 1014.6 |
| 20260503130518 | 12 | 0.0 | 0.0 | 0.00 | 0.00 | 0.00 | 82 | 1014.4 | |
| 20260503110539 | 13 | 0.0 | 0.0 | 0.00 | 0.00 | 0.00 | 74 | 1014.6 | |
| 20260503081519 | 15 | 20 | 0.0 | 4.8 | 0.00 | 0.00 | 0.00 | 63 | 1014.7 |
| 20260503080517 | 15 | 0.0 | 0.0 | 0.00 | 0.00 | 0.00 | 63 | 1014.7 | |
| 20260503072519 | 16 | 0.0 | 0.0 | 0.00 | 0.00 | 0.00 | 63 | 1014.6 | |
| 20260503071518 | 16 | 0.0 | 0.0 | 0.00 | 0.00 | 0.00 | 62 | 1014.6 | |
| 20260503070519 | 16 | 0.0 | 0.0 | 0.00 | 0.00 | 0.00 | 61 | 1014.6 | |
| 20260503054520 | 16 | 0.0 | 0.0 | 0.00 | 0.00 | 0.00 | 60 | 1014.4 | |
| 20260503053519 | 17 | 0.0 | 0.0 | 0.00 | 0.00 | 0.00 | 59 | 1014.5 | |
| 20260503052519 | 17 | 40 | 0.0 | 4.8 | 0.00 | 0.00 | 0.00 | 59 | 1014.5 |
| 20260503051518 | 17 | 0.0 | 0.0 | 0.00 | 0.00 | 0.00 | 60 | 1014.4 | |
| 20260503050520 | 17 | 0.0 | 3.2 | 0.00 | 0.00 | 0.00 | 59 | 1014.4 | |
| 20260503045520 | 17 | 36 | 1.6 | 4.8 | 0.00 | 0.00 | 0.00 | 59 | 1014.4 |
| 20260503044516 | 17 | 0.0 | 0.0 | 0.00 | 0.00 | 0.00 | 59 | 1014.4 | |
| 20260503043519 | 17 | 0.0 | 0.0 | 0.00 | 0.00 | 0.00 | 58 | 1014.3 | |
| 20260503042518 | 17 | 9 | 0.0 | 4.8 | 0.00 | 0.00 | 0.00 | 59 | 1014.2 |
| 20260503041519 | 17 | 0.0 | 0.0 | 0.00 | 0.00 | 0.00 | 61 | 1014.1 | |
| 20260503040518 | 18 | 9 | 0.0 | 4.8 | 0.00 | 0.00 | 0.00 | 59 | 1014.0 |
| 20260503035520 | 18 | 7 | 3.2 | 4.8 | 0.00 | 0.00 | 0.00 | 59 | 1013.8 |
| 20260503034518 | 18 | 0.0 | 0.0 | 0.00 | 0.00 | 0.00 | 60 | 1013.6 | |
| 20260503033519 | 18 | 0.0 | 0.0 | 0.00 | 0.00 | 0.00 | 60 | 1013.5 | |
| 20260503032518 | 19 | 10 | 1.6 | 9.7 | 0.00 | 0.00 | 0.00 | 59 | 1013.4 |
| 20260503031518 | 19 | 21 | 0.0 | 3.2 | 0.00 | 0.00 | 0.00 | 59 | 1013.3 |
| 20260503030539 | 20 | 36 | 1.6 | 11.3 | 0.00 | 0.00 | 0.00 | 58 | 1013.3 |
| 20260503025518 | 20 | 21 | 1.6 | 4.8 | 0.00 | 0.00 | 0.00 | 58 | 1013.2 |
| 20260503024519 | 20 | 11 | 0.0 | 6.4 | 0.00 | 0.00 | 0.00 | 57 | 1013.1 |
| 20260503022518 | 21 | 341 | 1.6 | 11.3 | 0.00 | 0.00 | 0.00 | 57 | 1013.1 |
| 20260503021518 | 21 | 24 | 3.2 | 12.9 | 0.00 | 0.00 | 0.00 | 57 | 1013.0 |
| 20260503020520 | 21 | 332 | 3.2 | 16.1 | 0.00 | 0.00 | 0.00 | 57 | 1013.1 |
| 20260503015518 | 21 | 8 | 0.0 | 6.4 | 0.00 | 0.00 | 0.00 | 57 | 1013.0 |
| 20260503014519 | 21 | 14 | 3.2 | 11.3 | 0.00 | 0.00 | 0.00 | 56 | 1013.1 |
| 20260503013518 | 21 | 350 | 1.6 | 9.7 | 0.00 | 0.00 | 0.00 | 56 | 1013.1 |
| 20260503012518 | 22 | 38 | 3.2 | 11.3 | 0.00 | 0.00 | 0.00 | 55 | 1013.1 |
| 20260503011519 | 22 | 326 | 1.6 | 12.9 | 0.00 | 0.00 | 0.00 | 55 | 1013.1 |
| 20260503010520 | 22 | 339 | 3.2 | 11.3 | 0.00 | 0.00 | 0.00 | 54 | 1013.1 |
| 20260503005519 | 22 | 330 | 4.8 | 16.1 | 0.00 | 0.00 | 0.00 | 54 | 1013.1 |
| 20260503004556 | 22 | 10 | 4.8 | 14.5 | 0.00 | 0.00 | 0.00 | 53 | 1013.2 |
| 20260503003518 | 22 | 337 | 3.2 | 11.3 | 0.00 | 0.00 | 0.00 | 52 | 1013.2 |
| 20260503002518 | 22 | 350 | 4.8 | 16.1 | 0.00 | 0.00 | 0.00 | 50 | 1013.3 |
| 20260503001519 | 22 | 315 | 1.6 | 12.9 | 0.00 | 0.00 | 0.00 | 50 | 1013.4 |
| 20260503000520 | 23 | 355 | 1.6 | 14.5 | 0.00 | 0.00 | 0.00 | 50 | 1013.5 |
| 20260502235519 | 23 | 312 | 1.6 | 9.7 | 0.00 | 0.00 | 0.00 | 50 | 1013.6 |
| 20260502234518 | 23 | 336 | 3.2 | 11.3 | 0.00 | 0.00 | 0.00 | 50 | 1013.7 |
| 20260502233518 | 23 | 13 | 11.3 | 20.9 | 0.00 | 0.00 | 0.00 | 50 | 1013.7 |
| 20260502232519 | 23 | 329 | 3.2 | 22.5 | 0.00 | 0.00 | 0.00 | 52 | 1013.8 |
| 20260502231518 | 23 | 338 | 6.4 | 14.5 | 0.00 | 0.00 | 0.00 | 52 | 1014.0 |
| 20260502230539 | 23 | 354 | 4.8 | 16.1 | 0.00 | 0.00 | 0.00 | 51 | 1014.1 |